Location: Hokitika
(42.7170°S, 170.9670°E)
Time: 09:37:12
(UTC+13:00)

Cosmos 1933 - Pass Details

Date: 24 January 2019
Orbit: 548 x 564 km, 82.5° (Epoch: 19 February)

Event Time Altitude Azimuth Distance (km) Brightness Sun altitude
Exits shadow 22:58:19 22° 355° (N) 1,255 4.8 -16.8°
Maximum altitude 23:00:54 87° 79° (ENE) 578 3.3 -17.1°
Drops below altitude 10° 23:05:06 10° 171° (S) 1,893 6.6 -17.6°
Sets 23:07:18 0° 171° (S) 2,801 7.6 -17.8°
